Location: Bukovany
(49.8234°N, 14.6297°E)
Time: 17:33:57
(UTC+00:00)

Resurs 01 Rocket - Pass Details

Date: 17 November 2025
Orbit: 626 x 637 km, 97.7° (Epoch: 09 December)

Event Time Altitude Azimuth Distance (km) Brightness Sun altitude
Exits shadow 17:08:57 22° 30° (NNE) 1,415 3.0 -18.1°
Drops below altitude 10° 17:11:02 10° 7° (N) 2,036 4.1 -18.4°
Sets 17:13:29 0° 356° (N) 2,949 5.0 -18.8°
